timestamp,surface_pressure_avg,surface_temp_avg,battery_voltage,lat,long
2022-12-23 00:09:00+00:00,327.8763,4.16,12.17,47.84626,-54.09684
2022-12-23 00:19:00+00:00,325.3464,4.2,12.17,47.84626,-54.09684
2022-12-23 00:29:00+00:00,320.6214,4.2,12.17,47.84626,-54.09684
2022-12-23 00:39:00+00:00,316.348,4.23,12.17,47.84626,-54.09684
2022-12-23 00:49:00+00:00,309.8413,4.2,12.17,47.84626,-54.09684
2022-12-23 00:59:00+00:00,301.018,4.2,12.17,47.84626,-54.09684
2022-12-23 01:09:00+00:00,292.0613,4.2,12.17,47.84626,-54.09684
2022-12-23 01:19:00+00:00,285.1964,4.2,12.17,47.84626,-54.09684
2022-12-23 01:29:00+00:00,278.8697,4.1,12.17,47.84626,-54.09684
2022-12-23 01:39:00+00:00,269.153,4.1,12.17,47.84626,-54.09684
2022-12-23 01:49:00+00:00,260.2498,4.0,12.17,47.84626,-54.09684
2022-12-23 01:59:00+00:00,252.9948,4.0,12.17,47.84626,-54.09684
2022-12-23 02:09:00+00:00,247.8614,4.07,12.17,47.84626,-54.09684
2022-12-23 02:19:00+00:00,236.9781,4.1,12.17,47.84626,-54.09684
2022-12-23 02:29:00+00:00,223.7848,4.1,12.17,47.84626,-54.09684
2022-12-23 02:39:00+00:00,213.4064,4.1,12.17,47.84626,-54.09684
2022-12-23 02:49:00+00:00,205.1348,4.1,12.17,47.84626,-54.09684
2022-12-23 02:59:00+00:00,196.7014,4.1,12.17,47.84626,-54.09684
2022-12-23 03:09:00+00:00,190.9215,4.1,12.17,47.84626,-54.09684
2022-12-23 03:19:00+00:00,187.2164,4.1,12.09,47.84626,-54.09684
2022-12-23 03:29:00+00:00,183.9881,4.1,12.09,47.84626,-54.09684
2022-12-23 03:39:00+00:00,182.0831,4.1,12.09,47.84626,-54.09684
2022-12-23 03:49:00+00:00,181.5465,4.07,12.09,47.84626,-54.09684
2022-12-23 03:59:00+00:00,180.3281,4.08,12.09,47.84626,-54.09684
2022-12-23 04:09:00+00:00,175.4214,4.0,12.09,47.84626,-54.09684
2022-12-23 04:19:00+00:00,171.2298,4.0,12.17,47.84626,-54.09684
2022-12-23 04:29:00+00:00,167.7782,3.9,12.17,47.84626,-54.09684
2022-12-23 04:39:00+00:00,162.3282,3.9,12.17,47.84626,-54.09684
2022-12-23 04:49:00+00:00,161.0065,3.9,12.17,47.84626,-54.09684
2022-12-23 04:59:00+00:00,165.2415,3.89,12.17,47.84626,-54.09684
2022-12-23 05:09:00+00:00,169.2598,3.88,12.17,47.84626,-54.09684
2022-12-23 05:19:00+00:00,168.5399,3.88,12.09,47.84626,-54.09684
2022-12-23 05:29:00+00:00,170.4898,3.88,12.09,47.84626,-54.09684
2022-12-23 05:39:00+00:00,177.3048,3.88,12.09,47.84626,-54.09684
2022-12-23 05:49:00+00:00,182.3248,3.89,12.09,47.84626,-54.09684
2022-12-23 05:59:00+00:00,190.0515,3.9,12.09,47.84626,-54.09684
2022-12-23 06:09:00+00:00,199.0931,3.96,12.09,47.84626,-54.09684
2022-12-23 06:19:00+00:00,204.9348,4.0,12.09,47.84626,-54.09684
2022-12-23 06:29:00+00:00,209.0965,4.08,12.09,47.84626,-54.09684
2022-12-23 06:39:00+00:00,213.8615,4.1,12.09,47.84626,-54.09684
2022-12-23 06:49:00+00:00,219.0648,4.1,12.09,47.84626,-54.09684
2022-12-23 06:59:00+00:00,224.6064,4.1,12.09,47.84626,-54.09684
2022-12-23 07:09:00+00:00,227.3898,4.1,12.09,47.84626,-54.09684
2022-12-23 07:19:00+00:00,227.8281,4.1,12.09,47.84626,-54.09684
2022-12-23 07:29:00+00:00,229.3131,4.13,12.09,47.84626,-54.09684
2022-12-23 07:39:00+00:00,236.8731,4.17,12.09,47.84626,-54.09684
2022-12-23 07:49:00+00:00,245.1647,4.19,12.09,47.84626,-54.09684
2022-12-23 07:59:00+00:00,249.9497,4.2,12.09,47.84626,-54.09684
2022-12-23 08:09:00+00:00,258.0047,4.2,12.09,47.84626,-54.09684
2022-12-23 08:19:01+00:00,268.5497,4.1,12.09,47.84626,-54.09684
2022-12-23 08:29:01+00:00,273.5948,4.1,12.09,47.84626,-54.09684
2022-12-23 08:39:01+00:00,279.7147,4.0,12.09,47.84626,-54.09684
2022-12-23 08:49:01+00:00,288.5563,4.0,12.09,47.84626,-54.09684
2022-12-23 08:59:01+00:00,293.6263,4.0,12.09,47.84626,-54.09684
2022-12-23 09:09:01+00:00,299.1863,4.0,12.09,47.84626,-54.09684
2022-12-23 09:19:00+00:00,311.8231,4.0,12.09,47.84626,-54.09684
2022-12-23 09:29:00+00:00,325.4179,4.0,12.09,47.84626,-54.09684
2022-12-23 09:39:00+00:00,330.5113,4.0,12.09,47.84626,-54.09684
2022-12-23 09:49:00+00:00,337.6512,4.0,12.09,47.84626,-54.09684
2022-12-23 09:59:00+00:00,353.3146,4.0,12.09,47.84626,-54.09684
2022-12-23 10:09:00+00:00,364.8963,4.03,12.09,47.84626,-54.09684
2022-12-23 10:19:00+00:00,365.8396,4.05,12.09,47.84626,-54.09684
2022-12-23 10:29:00+00:00,370.173,4.1,12.09,47.84626,-54.09684
2022-12-23 10:39:00+00:00,378.5213,4.1,12.09,47.84626,-54.09684
2022-12-23 10:49:00+00:00,376.6162,4.1,12.09,47.84626,-54.09684
2022-12-23 10:59:00+00:00,369.2411,4.1,12.09,47.84626,-54.09684
2022-12-23 11:09:00+00:00,375.3062,4.1,12.09,47.84626,-54.09684
2022-12-23 11:19:00+00:00,380.9664,4.1,12.09,47.84626,-54.09684
2022-12-23 11:29:00+00:00,374.3978,4.1,12.09,47.84626,-54.09684
2022-12-23 11:39:00+00:00,374.6013,4.1,12.09,47.84626,-54.09684
2022-12-23 11:49:00+00:00,382.5529,4.14,12.09,47.84626,-54.09684
2022-12-23 11:59:00+00:00,379.6061,4.1,12.09,47.84626,-54.09684
2022-12-23 12:09:00+00:00,373.6562,4.1,12.09,47.84626,-54.09684
2022-12-23 12:19:01+00:00,375.1746,4.1,12.17,47.84626,-54.09684
2022-12-23 12:29:01+00:00,376.6046,4.1,12.17,47.84626,-54.09684
2022-12-23 12:39:01+00:00,365.9163,4.1,12.17,47.84626,-54.09684
2022-12-23 12:49:01+00:00,354.2229,4.1,12.17,47.84626,-54.09684
2022-12-23 12:59:01+00:00,353.9264,4.1,12.17,47.84626,-54.09684
2022-12-23 13:09:01+00:00,351.12800000000016,3.71,12.17,47.84626,-54.09684
2022-12-23 13:19:00+00:00,342.8629,3.25,12.25,47.84626,-54.09684
2022-12-23 13:29:00+00:00,334.1146,3.6,12.25,47.84626,-54.09684
2022-12-23 13:39:00+00:00,328.9696,3.4,12.25,47.84626,-54.09684
2022-12-23 13:49:00+00:00,320.923,3.52,12.25,47.84626,-54.09684
2022-12-23 13:59:00+00:00,312.0714,3.5,12.25,47.84626,-54.09684
2022-12-23 14:09:00+00:00,306.2413,3.53,12.25,47.84626,-54.09684
2022-12-23 14:19:00+00:00,296.418,3.64,12.57,47.84626,-54.09684
2022-12-23 14:29:00+00:00,287.9163,3.6,12.57,47.84626,-54.09684
2022-12-23 14:39:00+00:00,282.3647,3.53,12.57,47.84626,-54.09684
2022-12-23 14:49:00+00:00,270.2231,3.31,12.57,47.84626,-54.09684
2022-12-23 14:59:00+00:00,258.3014,3.2,12.57,47.84626,-54.09684
2022-12-23 15:09:00+00:00,249.1981,3.1,12.57,47.84626,-54.09684
2022-12-23 15:19:01+00:00,238.9014,3.1,13.37,47.84626,-54.09684
2022-12-23 15:29:01+00:00,225.3781,3.1,13.37,47.84626,-54.09684
2022-12-23 15:39:01+00:00,217.1931,3.1,13.37,47.84626,-54.09684
2022-12-23 15:49:01+00:00,209.1947,3.1,13.37,47.84626,-54.09684
2022-12-23 15:59:01+00:00,203.7314,3.17,13.37,47.84626,-54.09684
2022-12-23 16:09:01+00:00,199.5514,3.2,13.37,47.84626,-54.09684
2022-12-23 16:19:00+00:00,194.0148,3.2,13.21,47.84626,-54.09684
2022-12-23 16:29:00+00:00,187.3831,3.2,13.21,47.84626,-54.09684
2022-12-23 16:39:00+00:00,182.4214,3.26,13.21,47.84626,-54.09684
2022-12-23 16:49:00+00:00,176.9265,3.34,13.21,47.84626,-54.09684
2022-12-23 16:59:00+00:00,166.5015,3.4,13.21,47.84626,-54.09684
2022-12-23 17:09:00+00:00,161.1448,3.39,13.21,47.84626,-54.09684
2022-12-23 17:19:00+00:00,167.1515,3.39,13.21,47.84626,-54.09684
2022-12-23 17:29:00+00:00,165.5298,3.38,13.21,47.84626,-54.09684
2022-12-23 17:39:00+00:00,158.1932,3.39,13.21,47.84626,-54.09684
2022-12-23 17:49:00+00:00,161.7615,3.4,13.21,47.84626,-54.09684
2022-12-23 17:59:00+00:00,166.0582,3.47,13.21,47.84626,-54.09684
2022-12-23 18:09:00+00:00,165.0481,3.5,13.21,47.84626,-54.09684
2022-12-23 18:19:01+00:00,169.1515,3.46,13.05,47.84626,-54.09684
2022-12-23 18:29:01+00:00,179.4849,3.5,13.05,47.84626,-54.09684
2022-12-23 18:39:01+00:00,182.3415,3.4,13.05,47.84626,-54.09684
2022-12-23 18:49:01+00:00,181.9415,3.4,13.05,47.84626,-54.09684
2022-12-23 18:59:01+00:00,182.9048,3.38,13.05,47.84626,-54.09684
2022-12-23 19:09:01+00:00,187.1881,3.4,13.05,47.84626,-54.09684
2022-12-23 19:19:00+00:00,196.1765,3.3,12.65,47.84626,-54.09684
2022-12-23 19:29:00+00:00,199.9098,3.3,12.65,47.84626,-54.09684
2022-12-23 19:39:00+00:00,203.5298,3.39,12.65,47.84626,-54.09684
2022-12-23 19:49:00+00:00,205.7264,3.62,12.65,47.84626,-54.09684
2022-12-23 19:59:00+00:00,207.1147,3.72,12.65,47.84626,-54.09684
2022-12-23 20:09:00+00:00,211.2464,3.8,12.65,47.84626,-54.09684
2022-12-23 20:19:00+00:00,218.6247,3.8,12.57,47.84626,-54.09684
2022-12-23 20:29:00+00:00,223.7097,3.7,12.57,47.84626,-54.09684
2022-12-23 20:39:00+00:00,225.4665,3.72,12.57,47.84626,-54.09684
2022-12-23 20:49:00+00:00,232.5281,3.8,12.57,47.84626,-54.09684
2022-12-23 20:59:00+00:00,239.5398,3.8,12.57,47.84626,-54.09684
2022-12-23 21:09:00+00:00,245.4531,3.8,12.57,47.84626,-54.09684
2022-12-23 21:19:00+00:00,257.1581,3.7,12.57,47.84626,-54.09684
2022-12-23 21:29:00+00:00,269.8114,3.7,12.57,47.84626,-54.09684
2022-12-23 21:39:00+00:00,281.4181,3.75,12.57,47.84626,-54.09684
2022-12-23 21:49:00+00:00,287.9481,3.73,12.57,47.84626,-54.09684
2022-12-23 21:59:00+00:00,290.5863,3.7,12.57,47.84626,-54.09684
2022-12-23 22:09:00+00:00,298.9997,3.7,12.57,47.84626,-54.09684
2022-12-23 22:19:00+00:00,316.0363,3.66,12.49,47.84626,-54.09684
2022-12-23 22:29:00+00:00,321.7446,3.6,12.49,47.84626,-54.09684
2022-12-23 22:39:00+00:00,321.1863,3.91,12.49,47.84626,-54.09684
2022-12-23 22:49:00+00:00,324.858,4.11,12.49,47.84626,-54.09684
2022-12-23 22:59:00+00:00,336.0847,4.2,12.49,47.84626,-54.09684
2022-12-23 23:09:00+00:00,337.2178,4.2,12.49,47.84626,-54.09684
2022-12-23 23:19:00+00:00,341.0563,4.2,12.49,47.84626,-54.09684
2022-12-23 23:29:00+00:00,348.1028,4.2,12.49,47.84626,-54.09684
2022-12-23 23:39:00+00:00,349.5463,4.2,12.49,47.84626,-54.09684
2022-12-23 23:49:00+00:00,345.7513,4.2,12.49,47.84626,-54.09684
2022-12-23 23:59:00+00:00,340.2446,4.2,12.49,47.84626,-54.09684
